Weather History for Abbeville, LA

Change the Weather History Date:

Sunday, August 31, 2014

  Actual Average (KARA) Record (KARA)
Temperature  
Mean Temperature 80 °F 82 °F  
Max Temperature 88 °F 91 °F 103 °F (2000)
Min Temperature 73 °F 73 °F 64 °F (1968)
Degree Days  
Heating Degree Days 0 0  
Month to date heating degree days 0  
Since 1 June heating degree days 0  
Since 1 July heating degree days 0  
Cooling Degree Days 16 17  
Month to date cooling degree days 555  
Year to date cooling degree days 2143  
Since 1 June cooling degree days 1573  
Growing Degree Days 30 (Base 50)    
Moisture  
Dew Point 75 °F    
Average Humidity 87    
Maximum Humidity 100    
Minimum Humidity 63    
Precipitation  
Precipitation 0.26 in 0.18 in 0.68 in (1952)
Month to date precipitation 5.08  
Year to date precipitation 40.85  
Sea Level Pressure  
Sea Level Pressure 30.03 in    
Wind  
Wind Speed 3 mph (SE)    
Max Wind Speed 15 mph    
Max Gust Speed 21 mph    
Visibility 10 miles    
Events      
T = Trace of Precipitation, MM = Missing Value Source: NWS Daily Summary

Daily Weather History Graph

Daily Weather History Graph

Search for Another Location

Airport:

Trip Planner

Search our weather history database for the weather conditions in past years. The results will help you decide how hot, cold, wet, or windy it might be!

Date:

Astronomy

Aug. 31, 2014 Rise Set
Actual Time 6:44 AM CDT 7:31 PM CDT
Civil Twilight 6:20 AM CDT 7:56 PM CDT
Nautical Twilight 5:51 AM CDT 8:24 PM CDT
Astronomical Twilight 5:22 AM CDT 8:54 PM CDT
Moon 12:05 PM CDT (8/31) 11:14 PM CDT (8/31)
Length of Visible Light 13h 35m
Length of Day
12h 47m
Waxing Crescent, 32% of the Moon is Illuminated
Aug 31
Waxing Crescent
Sep 2
First Quarter
Sep 8
Full
Sep 15
Last Quarter
Sep 24
New

Hourly Weather History & Observations

Time (CDT) Temp. Heat Index Dew Point Humidity Pressure Visibility Wind Dir Wind Speed Gust Speed Precip Events Conditions
12:15 AM 74.3 °F - 73.2 °F 96% 30.00 in 10.0 mi Calm Calm - N/A   Scattered Clouds
12:35 AM 73.9 °F - 73.0 °F 97% 30.00 in 10.0 mi Calm Calm - N/A   Scattered Clouds
12:55 AM 73.9 °F - 72.9 °F 96% 30.00 in 10.0 mi Calm Calm - N/A   Scattered Clouds
1:15 AM 73.6 °F - 73.0 °F 98% 30.01 in 10.0 mi Calm Calm - N/A   Clear
1:35 AM 73.4 °F - 73.0 °F 99% 30.01 in 10.0 mi Calm Calm - 0.01 in   Clear
1:55 AM 73.4 °F - 73.0 °F 99% 30.01 in 10.0 mi Calm Calm - 0.01 in   Clear
2:15 AM 73.2 °F - 72.9 °F 99% 30.01 in 10.0 mi Calm Calm - 0.01 in   Clear
2:35 AM 73.2 °F - 72.9 °F 99% 30.01 in 10.0 mi Calm Calm - 0.01 in   Clear
2:55 AM 73.4 °F - 72.9 °F 98% 30.01 in 10.0 mi East 3.5 mph - 0.01 in   Clear
3:15 AM 73.4 °F - 72.9 °F 98% 30.01 in 10.0 mi Calm Calm - N/A   Clear
3:35 AM 73.6 °F - 73.2 °F 99% 30.02 in 10.0 mi Calm Calm - N/A   Clear
3:55 AM 74.1 °F - 73.6 °F 98% 30.02 in 10.0 mi Calm Calm - 0.01 in   Clear
4:15 AM 74.3 °F - 73.8 °F 98% 30.02 in 10.0 mi East 3.5 mph - N/A   Clear
4:35 AM 74.7 °F - 74.1 °F 98% 30.02 in 10.0 mi Calm Calm - N/A   Scattered Clouds
4:55 AM 74.5 °F - 74.1 °F 99% 30.02 in 10.0 mi Calm Calm - N/A   Clear
5:15 AM 74.5 °F - 74.1 °F 99% 30.03 in 10.0 mi Calm Calm - N/A   Clear
5:35 AM 73.9 °F - 73.6 °F 99% 30.03 in 10.0 mi Calm Calm - 0.01 in   Clear
5:55 AM 73.6 °F - 73.2 °F 99% 30.04 in 10.0 mi Calm Calm - 0.01 in   Clear
6:15 AM 73.6 °F - 73.4 °F 99% 30.04 in 10.0 mi Calm Calm - N/A   Clear
6:35 AM 73.4 °F - 73.4 °F 100% 30.04 in 10.0 mi Calm Calm - N/A   Clear
6:55 AM 73.6 °F - 73.4 °F 99% 30.05 in 10.0 mi Calm Calm - 0.01 in   Clear
7:15 AM 73.8 °F - 73.4 °F 99% 30.05 in 10.0 mi Calm Calm - N/A   Clear
7:35 AM 73.9 °F - 73.4 °F 98% 30.05 in 10.0 mi Calm Calm - N/A   Clear
7:55 AM 74.3 °F - 73.4 °F 97% 30.06 in 10.0 mi Calm Calm - N/A   Clear
8:15 AM 74.7 °F - 73.9 °F 98% 30.06 in 10.0 mi Calm Calm - 0.01 in   Clear
8:35 AM 75.4 °F - 74.5 °F 97% 30.06 in 10.0 mi Calm Calm - 0.01 in   Clear
8:55 AM 76.5 °F - 74.7 °F 94% 30.07 in 10.0 mi Calm Calm - 0.01 in   Clear
9:15 AM 78.1 °F - 75.2 °F 91% 30.07 in 10.0 mi East 3.5 mph - N/A   Clear
9:35 AM 79.9 °F - 76.8 °F 90% 30.07 in 10.0 mi East 3.5 mph - 0.01 in   Clear
9:55 AM 81.1 °F 88.7 °F 77.5 °F 89% 30.07 in 10.0 mi Calm Calm - 0.01 in   Clear
10:15 AM 82.0 °F 91.0 °F 78.1 °F 88% 30.07 in 10.0 mi East 3.5 mph - 0.01 in   Scattered Clouds
10:55 AM 84.7 °F 97.8 °F 79.5 °F 84% 30.07 in 10.0 mi SE 8.1 mph - 0.03 in   Mostly Cloudy
11:15 AM 85.6 °F 99.7 °F 79.5 °F 82% 30.07 in 10.0 mi SE 6.9 mph - N/A   Mostly Cloudy
11:35 AM 86.7 °F 99.9 °F 78.4 °F 76% 30.07 in 10.0 mi SSE 11.5 mph - 0.01 in   Mostly Cloudy
11:55 AM 86.9 °F 99.3 °F 77.7 °F 74% 30.07 in 10.0 mi SE 13.8 mph - 0.02 in   Scattered Clouds
12:15 PM 87.4 °F 99.2 °F 76.8 °F 71% 30.06 in 10.0 mi SSE 15.0 mph - 0.01 in   Scattered Clouds
12:35 PM 86.9 °F 98.3 °F 76.8 °F 72% 30.05 in - SSE 12.7 mph - 0.02 in   Scattered Clouds
12:55 PM 87.1 °F 97.8 °F 76.1 °F 70% 30.05 in - ESE 9.2 mph 16.1 mph 0.03 in   Scattered Clouds
1:15 PM 88.3 °F 102.3 °F 78.1 °F 72% 30.05 in - SE 10.4 mph 16.1 mph 0.01 in   Scattered Clouds
1:35 PM 87.4 °F 99.2 °F 76.8 °F 71% 30.05 in - SSE 15.0 mph 20.7 mph 0.01 in   Scattered Clouds
1:55 PM 87.6 °F 98.7 °F 76.3 °F 69% 30.05 in 10.0 mi SSE 11.5 mph 18.4 mph 0.02 in   Scattered Clouds
2:15 PM 87.8 °F 98.6 °F 75.9 °F 68% 30.04 in - SE 11.5 mph 18.4 mph 0.01 in   Clear
2:35 PM 88.3 °F 98.9 °F 75.6 °F 66% 30.04 in - SE 11.5 mph 18.4 mph 0.02 in   Clear
2:55 PM 87.8 °F 97.6 °F 75.4 °F 66% 30.03 in 10.0 mi SE 12.7 mph 17.3 mph 0.02 in   Clear
3:15 PM 88.2 °F 99.5 °F 76.3 °F 68% 30.02 in - SE 11.5 mph 19.6 mph N/A   Clear
3:35 PM 88.7 °F 99.3 °F 75.6 °F 65% 30.02 in 10.0 mi SE 10.4 mph 16.1 mph N/A   Clear
3:55 PM 87.6 °F 96.7 °F 74.5 °F 65% 30.02 in - SE 11.5 mph 19.6 mph 0.01 in   Clear
4:15 PM 88.2 °F 96.9 °F 74.3 °F 63% 30.02 in 10.0 mi SE 10.4 mph 19.6 mph N/A   Clear
4:35 PM 87.8 °F 96.1 °F 73.8 °F 63% 30.02 in 10.0 mi SE 10.4 mph - 0.01 in   Clear
4:55 PM 86.5 °F 96.4 °F 75.7 °F 70% 30.02 in - SE 9.2 mph - 0.01 in   Clear
5:35 PM 86.9 °F 96.4 °F 75.2 °F 68% 30.03 in 10.0 mi SE 11.5 mph - 0.01 in   Clear
5:55 PM 86.5 °F 96.4 °F 75.6 °F 70% 30.02 in 10.0 mi SSE 9.2 mph - 0.01 in   Clear
6:15 PM 84.9 °F 94.5 °F 76.3 °F 75% 30.01 in 10.0 mi SSE 9.2 mph - N/A   Clear
6:35 PM 83.5 °F 92.2 °F 76.3 °F 79% 30.01 in 10.0 mi SE 6.9 mph - N/A   Clear
6:55 PM 82.4 °F 90.3 °F 76.3 °F 82% 30.01 in 10.0 mi SE 5.8 mph - N/A   Clear
7:15 PM 81.9 °F 89.2 °F 76.1 °F 83% 30.01 in - SE 5.8 mph - 0.01 in   Clear
7:35 PM 80.8 °F 87.2 °F 76.6 °F 87% 30.01 in - SE 5.8 mph - 0.01 in   Unknown
7:55 PM 80.6 °F 87.1 °F 77.0 °F 89% 30.01 in 10.0 mi SE 5.8 mph - 0.01 in   Clear
8:15 PM 80.2 °F 86.3 °F 77.0 °F 90% 30.01 in 10.0 mi SSE 6.9 mph - 0.01 in   Clear
8:35 PM 80.2 °F 86.3 °F 77.2 °F 90% 30.01 in 10.0 mi SE 6.9 mph - 0.01 in   Clear
8:55 PM 80.2 °F 86.3 °F 77.0 °F 90% 30.01 in 10.0 mi SE 6.9 mph - 0.01 in   Clear
9:15 PM 80.1 °F 85.8 °F 77.0 °F 90% 30.01 in 10.0 mi SE 5.8 mph - N/A   Clear
9:35 PM 80.1 °F 86.0 °F 77.2 °F 91% 30.01 in 10.0 mi SE 6.9 mph - 0.01 in   Clear
9:55 PM 80.1 °F 86.0 °F 77.4 °F 91% 30.01 in 10.0 mi SE 5.8 mph - 0.01 in   Clear
10:15 PM 79.9 °F - 77.4 °F 92% 30.02 in 10.0 mi ESE 4.6 mph - N/A   Clear
10:35 PM 79.2 °F - 77.4 °F 94% 30.02 in 10.0 mi Calm Calm - 0.01 in   Clear
10:55 PM 79.0 °F - 77.2 °F 94% 30.02 in 10.0 mi ESE 4.6 mph - 0.01 in   Scattered Clouds
11:15 PM 78.8 °F - 77.0 °F 94% 30.02 in 10.0 mi East 3.5 mph - N/A   Scattered Clouds
11:35 PM 78.1 °F - 76.6 °F 95% 30.01 in 10.0 mi Calm Calm - N/A   Scattered Clouds